Time,TemperatureF,DewpointF,PressureIn,WindDirection,WindDirectionDegrees,WindSpeedMPH,WindSpeedGustMPH,Humidity,HourlyPrecipIn,Conditions,Clouds,dailyrainin,SoftwareType,DateUTC
2013-06-15 00:00:00,47.0,38.0,27.07,ENE,67,0.0,3.0,72,0.00,,,0.00,Rainwise IP-100,2013-06-15 06:00:00,
2013-06-15 00:05:00,47.0,38.0,27.07,ENE,67,0.0,0.0,73,0.00,,,0.00,Rainwise IP-100,2013-06-15 06:05:00,
2013-06-15 00:10:00,46.0,38.0,27.07,ENE,67,0.0,0.0,74,0.00,,,0.00,Rainwise IP-100,2013-06-15 06:10:00,
2013-06-15 00:15:00,46.0,38.0,27.09,ENE,67,0.0,0.0,74,0.00,,,0.00,Rainwise IP-100,2013-06-15 06:15:00,
2013-06-15 00:20:00,46.0,39.0,27.09,SSW,202,1.0,2.0,76,0.00,,,0.00,Rainwise IP-100,2013-06-15 06:20:00,
2013-06-15 00:25:00,46.0,39.0,27.09,South,180,0.0,3.0,77,0.00,,,0.00,Rainwise IP-100,2013-06-15 06:25:00,
2013-06-15 00:30:00,46.0,39.0,27.09,ESE,112,1.0,6.0,76,0.00,,,0.00,Rainwise IP-100,2013-06-15 06:30:00,
2013-06-15 00:35:00,47.0,39.0,27.08,ESE,112,1.0,6.0,74,0.00,,,0.00,Rainwise IP-100,2013-06-15 06:35:00,
2013-06-15 00:40:00,47.0,38.0,27.08,ENE,67,1.0,5.0,73,0.00,,,0.00,Rainwise IP-100,2013-06-15 06:40:00,
2013-06-15 00:45:00,46.0,38.0,27.08,ENE,67,0.0,2.0,73,0.00,,,0.00,Rainwise IP-100,2013-06-15 06:45:00,
2013-06-15 00:50:00,46.0,39.0,27.08,ENE,67,0.0,0.0,76,0.00,,,0.00,Rainwise IP-100,2013-06-15 06:50:00,
2013-06-15 00:55:00,46.0,38.0,27.08,East,90,2.0,6.0,75,0.00,,,0.00,Rainwise IP-100,2013-06-15 06:55:00,
2013-06-15 01:00:00,46.0,39.0,27.08,ESE,112,1.0,3.0,76,0.00,,,0.00,Rainwise IP-100,2013-06-15 07:00:00,
2013-06-15 01:05:00,46.0,38.0,27.08,ENE,67,0.0,4.0,75,0.00,,,0.00,Rainwise IP-100,2013-06-15 07:05:00,
2013-06-15 01:10:00,46.0,39.0,27.08,ESE,112,1.0,4.0,76,0.00,,,0.00,Rainwise IP-100,2013-06-15 07:10:00,
2013-06-15 01:15:00,46.0,38.0,27.08,SE,135,0.0,3.0,74,0.00,,,0.00,Rainwise IP-100,2013-06-15 07:15:00,
2013-06-15 01:20:00,46.0,38.0,27.08,SE,135,2.0,6.0,75,0.00,,,0.00,Rainwise IP-100,2013-06-15 07:20:00,
2013-06-15 01:25:00,46.0,38.0,27.08,East,90,4.0,6.0,74,0.00,,,0.00,Rainwise IP-100,2013-06-15 07:25:00,
2013-06-15 01:30:00,46.0,38.0,27.08,SE,135,0.0,5.0,74,0.00,,,0.00,Rainwise IP-100,2013-06-15 07:30:00,
2013-06-15 01:35:00,45.0,38.0,27.08,SE,135,0.0,2.0,75,0.00,,,0.00,Rainwise IP-100,2013-06-15 07:35:00,
2013-06-15 01:40:00,45.0,38.0,27.08,ENE,67,1.0,4.0,76,0.00,,,0.00,Rainwise IP-100,2013-06-15 07:40:00,
2013-06-15 01:45:00,45.0,38.0,27.08,NE,45,3.0,6.0,76,0.00,,,0.00,Rainwise IP-100,2013-06-15 07:45:00,
2013-06-15 01:50:00,45.0,38.0,27.08,NE,45,0.0,6.0,76,0.00,,,0.00,Rainwise IP-100,2013-06-15 07:50:00,
2013-06-15 01:55:00,45.0,38.0,27.08,NE,45,0.0,0.0,77,0.00,,,0.00,Rainwise IP-100,2013-06-15 07:55:00,
2013-06-15 02:00:00,44.0,38.0,27.08,NE,45,0.0,2.0,78,0.00,,,0.00,Rainwise IP-100,2013-06-15 08:00:00,
2013-06-15 02:05:00,44.0,38.0,27.09,ENE,67,2.0,5.0,79,0.00,,,0.00,Rainwise IP-100,2013-06-15 08:05:00,
2013-06-15 02:10:00,45.0,39.0,27.09,ENE,67,0.0,6.0,79,0.00,,,0.00,Rainwise IP-100,2013-06-15 08:10:00,
2013-06-15 02:15:00,45.0,38.0,27.08,ENE,67,4.0,7.0,78,0.00,,,0.00,Rainwise IP-100,2013-06-15 08:15:00,
2013-06-15 02:20:00,45.0,38.0,27.08,ENE,67,2.0,6.0,77,0.00,,,0.00,Rainwise IP-100,2013-06-15 08:20:00,
2013-06-15 02:25:00,45.0,38.0,27.08,ENE,67,4.0,5.0,78,0.00,,,0.00,Rainwise IP-100,2013-06-15 08:25:00,
2013-06-15 02:30:00,45.0,39.0,27.08,NE,45,0.0,4.0,79,0.00,,,0.00,Rainwise IP-100,2013-06-15 08:30:00,
2013-06-15 02:35:00,44.0,38.0,27.08,NE,45,1.0,1.0,79,0.00,,,0.00,Rainwise IP-100,2013-06-15 08:35:00,
2013-06-15 02:40:00,44.0,38.0,27.08,NE,45,0.0,3.0,81,0.00,,,0.00,Rainwise IP-100,2013-06-15 08:40:00,
2013-06-15 02:45:00,44.0,39.0,27.09,NNE,22,3.0,4.0,82,0.00,,,0.00,Rainwise IP-100,2013-06-15 08:45:00,
2013-06-15 02:50:00,44.0,39.0,27.09,ENE,67,3.0,5.0,82,0.00,,,0.00,Rainwise IP-100,2013-06-15 08:50:00,
2013-06-15 02:55:00,44.0,39.0,27.09,NE,45,4.0,6.0,82,0.00,,,0.00,Rainwise IP-100,2013-06-15 08:55:00,
2013-06-15 03:00:00,44.0,38.0,27.09,NE,45,0.0,5.0,80,0.00,,,0.00,Rainwise IP-100,2013-06-15 09:00:00,
2013-06-15 03:05:00,44.0,38.0,27.09,West,270,2.0,3.0,81,0.00,,,0.00,Rainwise IP-100,2013-06-15 09:05:00,
2013-06-15 03:10:00,43.0,38.0,27.09,North,360,0.0,5.0,82,0.00,,,0.00,Rainwise IP-100,2013-06-15 09:10:00,
2013-06-15 03:15:00,43.0,39.0,27.09,NNE,22,3.0,6.0,84,0.00,,,0.00,Rainwise IP-100,2013-06-15 09:15:00,
2013-06-15 03:20:00,43.0,39.0,27.09,NE,45,5.0,5.0,84,0.00,,,0.00,Rainwise IP-100,2013-06-15 09:20:00,
2013-06-15 03:25:00,43.0,39.0,27.09,NE,45,0.0,5.0,84,0.00,,,0.00,Rainwise IP-100,2013-06-15 09:25:00,
2013-06-15 03:30:00,43.0,39.0,27.09,ESE,112,3.0,3.0,87,0.00,,,0.00,Rainwise IP-100,2013-06-15 09:30:00,
2013-06-15 03:32:00,42.0,38.0,27.09,ESE,112,1.0,4.0,85,0.00,,,0.00,Rainwise IP-100,2013-06-15 09:32:00,
2013-06-15 03:37:00,42.0,38.0,27.09,East,90,1.0,4.0,85,0.00,,,0.00,Rainwise IP-100,2013-06-15 09:37:00,
2013-06-15 03:42:00,42.0,38.0,27.09,East,90,0.0,3.0,84,0.00,,,0.00,Rainwise IP-100,2013-06-15 09:42:00,
2013-06-15 03:47:00,42.0,38.0,27.10,ENE,67,0.0,3.0,85,0.00,,,0.00,Rainwise IP-100,2013-06-15 09:47:00,
2013-06-15 03:52:00,41.0,37.0,27.10,ENE,67,0.0,2.0,86,0.00,,,0.00,Rainwise IP-100,2013-06-15 09:52:00,
2013-06-15 03:57:00,41.0,37.0,27.11,SE,135,2.0,4.0,86,0.00,,,0.00,Rainwise IP-100,2013-06-15 09:57:00,
2013-06-15 04:02:00,41.0,37.0,27.11,SE,135,2.0,3.0,86,0.00,,,0.00,Rainwise IP-100,2013-06-15 10:02:00,
2013-06-15 04:07:00,41.0,38.0,27.11,SSE,157,3.0,6.0,87,0.00,,,0.00,Rainwise IP-100,2013-06-15 10:07:00,
2013-06-15 04:12:00,41.0,38.0,27.11,East,90,1.0,5.0,88,0.00,,,0.00,Rainwise IP-100,2013-06-15 10:12:00,
2013-06-15 04:17:00,41.0,38.0,27.11,SSE,157,2.0,3.0,88,0.00,,,0.00,Rainwise IP-100,2013-06-15 10:17:00,
2013-06-15 04:22:00,41.0,38.0,27.11,SSE,157,0.0,3.0,88,0.00,,,0.00,Rainwise IP-100,2013-06-15 10:22:00,
2013-06-15 04:27:00,41.0,38.0,27.11,ENE,67,2.0,3.0,90,0.00,,,0.00,Rainwise IP-100,2013-06-15 10:27:00,
2013-06-15 04:32:00,40.0,37.0,27.11,ESE,112,0.0,3.0,89,0.00,,,0.00,Rainwise IP-100,2013-06-15 10:32:00,
2013-06-15 04:37:00,40.0,38.0,27.11,ESE,112,1.0,3.0,91,0.00,,,0.00,Rainwise IP-100,2013-06-15 10:37:00,
2013-06-15 04:42:00,40.0,38.0,27.11,East,90,0.0,5.0,90,0.00,,,0.00,Rainwise IP-100,2013-06-15 10:42:00,
2013-06-15 04:47:00,40.0,38.0,27.11,East,90,1.0,4.0,91,0.00,,,0.00,Rainwise IP-100,2013-06-15 10:47:00,
2013-06-15 04:52:00,41.0,39.0,27.11,ESE,112,2.0,3.0,92,0.00,,,0.00,Rainwise IP-100,2013-06-15 10:52:00,
2013-06-15 04:57:00,40.0,38.0,27.11,NE,45,0.0,4.0,90,0.00,,,0.00,Rainwise IP-100,2013-06-15 10:57:00,
2013-06-15 05:02:00,40.0,38.0,27.11,ESE,112,0.0,2.0,90,0.00,,,0.00,Rainwise IP-100,2013-06-15 11:02:00,
2013-06-15 05:07:00,40.0,38.0,27.11,ESE,112,0.0,0.0,90,0.00,,,0.00,Rainwise IP-100,2013-06-15 11:07:00,
2013-06-15 05:12:00,39.0,37.0,27.11,ESE,112,0.0,0.0,90,0.00,,,0.00,Rainwise IP-100,2013-06-15 11:12:00,
2013-06-15 05:17:00,39.0,37.0,27.12,ESE,112,0.0,2.0,93,0.00,,,0.00,Rainwise IP-100,2013-06-15 11:17:00,
2013-06-15 05:22:00,39.0,37.0,27.12,ESE,112,0.0,1.0,91,0.00,,,0.00,Rainwise IP-100,2013-06-15 11:22:00,
2013-06-15 05:27:00,38.0,36.0,27.12,ESE,112,0.0,0.0,92,0.00,,,0.00,Rainwise IP-100,2013-06-15 11:27:00,
2013-06-15 05:32:00,38.0,36.0,27.12,ESE,112,0.0,2.0,93,0.00,,,0.00,Rainwise IP-100,2013-06-15 11:32:00,
2013-06-15 05:37:00,38.0,36.0,27.12,ESE,112,0.0,1.0,93,0.00,,,0.00,Rainwise IP-100,2013-06-15 11:37:00,
2013-06-15 05:42:00,38.0,36.0,27.12,ESE,112,0.0,0.0,93,0.00,,,0.00,Rainwise IP-100,2013-06-15 11:42:00,
2013-06-15 05:47:00,37.0,36.0,27.12,ESE,112,0.0,0.0,94,0.00,,,0.00,Rainwise IP-100,2013-06-15 11:47:00,
2013-06-15 05:52:00,37.0,36.0,27.12,ESE,112,0.0,1.0,95,0.00,,,0.00,Rainwise IP-100,2013-06-15 11:52:00,
2013-06-15 05:57:00,37.0,36.0,27.13,ESE,112,0.0,0.0,95,0.00,,,0.00,Rainwise IP-100,2013-06-15 11:57:00,
2013-06-15 06:02:00,37.0,36.0,27.13,ESE,112,0.0,0.0,96,0.00,,,0.00,Rainwise IP-100,2013-06-15 12:02:00,
2013-06-15 06:07:00,37.0,36.0,27.13,ESE,112,0.0,0.0,95,0.00,,,0.00,Rainwise IP-100,2013-06-15 12:07:00,
2013-06-15 06:12:00,37.0,36.0,27.13,ESE,112,0.0,0.0,96,0.00,,,0.00,Rainwise IP-100,2013-06-15 12:12:00,
2013-06-15 06:17:00,37.0,36.0,27.13,ESE,112,0.0,0.0,96,0.00,,,0.00,Rainwise IP-100,2013-06-15 12:17:00,
2013-06-15 06:22:00,38.0,38.0,27.13,ESE,112,0.0,0.0,98,0.00,,,0.00,Rainwise IP-100,2013-06-15 12:22:00,
2013-06-15 06:27:00,39.0,39.0,27.13,ESE,112,0.0,0.0,98,0.00,,,0.00,Rainwise IP-100,2013-06-15 12:27:00,
2013-06-15 06:32:00,40.0,40.0,27.13,ESE,112,0.0,0.0,98,0.00,,,0.00,Rainwise IP-100,2013-06-15 12:32:00,
2013-06-15 06:37:00,41.0,40.0,27.11,ESE,112,0.0,0.0,95,0.00,,,0.00,Rainwise IP-100,2013-06-15 12:37:00,
2013-06-15 06:42:00,42.0,40.0,27.11,ESE,112,0.0,0.0,93,0.00,,,0.00,Rainwise IP-100,2013-06-15 12:42:00,
2013-06-15 06:47:00,42.0,40.0,27.10,ESE,112,0.0,0.0,92,0.00,,,0.00,Rainwise IP-100,2013-06-15 12:47:00,
2013-06-15 06:52:00,43.0,41.0,27.10,SE,135,2.0,2.0,93,0.00,,,0.00,Rainwise IP-100,2013-06-15 12:52:00,
2013-06-15 06:57:00,44.0,41.0,27.09,SSE,157,1.0,4.0,91,0.00,,,0.00,Rainwise IP-100,2013-06-15 12:57:00,
2013-06-15 07:02:00,44.0,42.0,27.09,SW,225,1.0,4.0,92,0.00,,,0.00,Rainwise IP-100,2013-06-15 13:02:00,
2013-06-15 07:07:00,45.0,42.0,27.09,SE,135,0.0,4.0,91,0.00,,,0.00,Rainwise IP-100,2013-06-15 13:07:00,
2013-06-15 07:12:00,45.0,40.0,27.09,SW,225,0.0,3.0,82,0.00,,,0.00,Rainwise IP-100,2013-06-15 13:12:00,
2013-06-15 07:17:00,46.0,39.0,27.08,SSE,157,4.0,5.0,79,0.00,,,0.00,Rainwise IP-100,2013-06-15 13:17:00,
2013-06-15 07:22:00,47.0,40.0,27.08,SSW,202,1.0,5.0,79,0.00,,,0.00,Rainwise IP-100,2013-06-15 13:22:00,
2013-06-15 07:27:00,47.0,39.0,27.07,SW,225,0.0,3.0,75,0.00,,,0.00,Rainwise IP-100,2013-06-15 13:27:00,
2013-06-15 07:32:00,48.0,41.0,27.07,WNW,292,0.0,4.0,75,0.00,,,0.00,Rainwise IP-100,2013-06-15 13:32:00,
2013-06-15 07:37:00,49.0,40.0,27.07,SSW,202,0.0,2.0,72,0.00,,,0.00,Rainwise IP-100,2013-06-15 13:37:00,
2013-06-15 07:42:00,49.0,40.0,27.07,SW,225,0.0,2.0,72,0.00,,,0.00,Rainwise IP-100,2013-06-15 13:42:00,
2013-06-15 07:47:00,50.0,39.0,27.06,South,180,4.0,4.0,68,0.00,,,0.00,Rainwise IP-100,2013-06-15 13:47:00,
2013-06-15 07:52:00,50.0,39.0,27.06,SE,135,2.0,4.0,67,0.00,,,0.00,Rainwise IP-100,2013-06-15 13:52:00,
2013-06-15 07:57:00,49.0,39.0,27.06,SSE,157,4.0,5.0,68,0.00,,,0.00,Rainwise IP-100,2013-06-15 13:57:00,
2013-06-15 08:02:00,49.0,39.0,27.06,SSE,157,2.0,5.0,68,0.00,,,0.00,Rainwise IP-100,2013-06-15 14:02:00,
2013-06-15 08:07:00,50.0,39.0,27.06,ESE,112,2.0,4.0,67,0.00,,,0.00,Rainwise IP-100,2013-06-15 14:07:00,
2013-06-15 08:12:00,51.0,40.0,27.06,WNW,292,1.0,4.0,66,0.00,,,0.00,Rainwise IP-100,2013-06-15 14:12:00,
2013-06-15 08:17:00,52.0,40.0,27.06,WNW,292,0.0,3.0,65,0.00,,,0.00,Rainwise IP-100,2013-06-15 14:17:00,
2013-06-15 08:22:00,53.0,40.0,27.06,East,90,2.0,4.0,62,0.00,,,0.00,Rainwise IP-100,2013-06-15 14:22:00,
2013-06-15 08:27:00,53.0,39.0,27.05,SSE,157,2.0,4.0,61,0.00,,,0.00,Rainwise IP-100,2013-06-15 14:27:00,
2013-06-15 08:32:00,53.0,39.0,27.05,SE,135,1.0,4.0,60,0.00,,,0.00,Rainwise IP-100,2013-06-15 14:32:00,
2013-06-15 08:37:00,54.0,40.0,27.04,SSE,157,0.0,4.0,59,0.00,,,0.00,Rainwise IP-100,2013-06-15 14:37:00,
2013-06-15 08:42:00,55.0,41.0,27.04,South,180,0.0,3.0,58,0.00,,,0.00,Rainwise IP-100,2013-06-15 14:42:00,
2013-06-15 08:47:00,56.0,40.0,27.03,NNW,337,4.0,4.0,56,0.00,,,0.00,Rainwise IP-100,2013-06-15 14:47:00,
2013-06-15 08:52:00,56.0,40.0,27.03,SSE,157,2.0,5.0,55,0.00,,,0.00,Rainwise IP-100,2013-06-15 14:52:00,
2013-06-15 08:57:00,56.0,40.0,27.03,South,180,2.0,6.0,56,0.00,,,0.00,Rainwise IP-100,2013-06-15 14:57:00,
2013-06-15 09:02:00,56.0,40.0,27.03,SSE,157,3.0,6.0,55,0.00,,,0.00,Rainwise IP-100,2013-06-15 15:02:00,
2013-06-15 09:07:00,55.0,40.0,27.03,WSW,247,3.0,6.0,57,0.00,,,0.00,Rainwise IP-100,2013-06-15 15:07:00,
2013-06-15 09:12:00,56.0,39.0,27.03,NE,45,3.0,6.0,53,0.00,,,0.00,Rainwise IP-100,2013-06-15 15:12:00,
2013-06-15 09:17:00,57.0,40.0,27.02,NE,45,1.0,4.0,54,0.00,,,0.00,Rainwise IP-100,2013-06-15 15:17:00,
2013-06-15 09:22:00,56.0,39.0,27.02,South,180,4.0,6.0,54,0.00,,,0.00,Rainwise IP-100,2013-06-15 15:22:00,
2013-06-15 09:27:00,57.0,40.0,27.02,WSW,247,2.0,6.0,54,0.00,,,0.00,Rainwise IP-100,2013-06-15 15:27:00,
2013-06-15 09:32:00,58.0,41.0,27.02,North,360,1.0,5.0,54,0.00,,,0.00,Rainwise IP-100,2013-06-15 15:32:00,
2013-06-15 09:37:00,58.0,40.0,27.01,SSW,202,3.0,6.0,51,0.00,,,0.00,Rainwise IP-100,2013-06-15 15:37:00,
2013-06-15 09:42:00,58.0,40.0,27.01,WNW,292,6.0,6.0,51,0.00,,,0.00,Rainwise IP-100,2013-06-15 15:42:00,
2013-06-15 09:47:00,58.0,40.0,27.01,SSE,157,4.0,6.0,51,0.00,,,0.00,Rainwise IP-100,2013-06-15 15:47:00,
2013-06-15 09:52:00,58.0,39.0,27.01,NNE,22,0.0,5.0,49,0.00,,,0.00,Rainwise IP-100,2013-06-15 15:52:00,
2013-06-15 09:57:00,59.0,41.0,27.01,NW,315,5.0,6.0,51,0.00,,,0.00,Rainwise IP-100,2013-06-15 15:57:00,
2013-06-15 10:02:00,58.0,40.0,27.01,WNW,292,3.0,7.0,51,0.00,,,0.00,Rainwise IP-100,2013-06-15 16:02:00,
2013-06-15 10:07:00,58.0,41.0,27.01,NNW,337,0.0,7.0,53,0.00,,,0.00,Rainwise IP-100,2013-06-15 16:07:00,
2013-06-15 10:12:00,59.0,40.0,27.01,ENE,67,1.0,5.0,49,0.00,,,0.00,Rainwise IP-100,2013-06-15 16:12:00,
2013-06-15 10:17:00,60.0,41.0,26.99,North,360,3.0,6.0,50,0.00,,,0.00,Rainwise IP-100,2013-06-15 16:17:00,
2013-06-15 10:22:00,60.0,40.0,26.99,ESE,112,2.0,5.0,49,0.00,,,0.00,Rainwise IP-100,2013-06-15 16:22:00,
2013-06-15 10:27:00,60.0,40.0,26.99,ESE,112,2.0,6.0,48,0.00,,,0.00,Rainwise IP-100,2013-06-15 16:27:00,
2013-06-15 10:32:00,61.0,40.0,26.99,NNW,337,7.0,7.0,47,0.00,,,0.00,Rainwise IP-100,2013-06-15 16:32:00,
2013-06-15 10:37:00,62.0,41.0,26.99,NNW,337,6.0,7.0,47,0.00,,,0.00,Rainwise IP-100,2013-06-15 16:37:00,
2013-06-15 10:42:00,61.0,40.0,26.99,NW,315,5.0,7.0,47,0.00,,,0.00,Rainwise IP-100,2013-06-15 16:42:00,
2013-06-15 10:47:00,61.0,40.0,26.98,NE,45,4.0,6.0,47,0.00,,,0.00,Rainwise IP-100,2013-06-15 16:47:00,
2013-06-15 10:52:00,61.0,39.0,26.98,ENE,67,3.0,6.0,45,0.00,,,0.00,Rainwise IP-100,2013-06-15 16:52:00,
2013-06-15 10:57:00,61.0,40.0,26.98,South,180,1.0,6.0,47,0.00,,,0.00,Rainwise IP-100,2013-06-15 16:57:00,
2013-06-15 11:02:00,63.0,41.0,26.98,North,360,0.0,7.0,44,0.00,,,0.00,Rainwise IP-100,2013-06-15 17:02:00,
2013-06-15 11:07:00,63.0,41.0,26.96,NW,315,6.0,7.0,44,0.00,,,0.00,Rainwise IP-100,2013-06-15 17:07:00,
2013-06-15 11:12:00,63.0,40.0,26.96,SW,225,0.0,7.0,43,0.00,,,0.00,Rainwise IP-100,2013-06-15 17:12:00,
2013-06-15 11:17:00,64.0,40.0,26.95,WSW,247,1.0,7.0,42,0.00,,,0.00,Rainwise IP-100,2013-06-15 17:17:00,
2013-06-15 11:22:00,63.0,40.0,26.95,WSW,247,2.0,7.0,43,0.00,,,0.00,Rainwise IP-100,2013-06-15 17:22:00,
2013-06-15 11:27:00,64.0,41.0,26.95,NNW,337,2.0,7.0,44,0.00,,,0.00,Rainwise IP-100,2013-06-15 17:27:00,
2013-06-15 11:32:00,64.0,40.0,26.95,North,360,6.0,7.0,42,0.00,,,0.00,Rainwise IP-100,2013-06-15 17:32:00,
2013-06-15 11:37:00,65.0,40.0,26.94,NNE,22,1.0,6.0,40,0.00,,,0.00,Rainwise IP-100,2013-06-15 17:37:00,
2013-06-15 11:42:00,65.0,40.0,26.94,NW,315,2.0,6.0,40,0.00,,,0.00,Rainwise IP-100,2013-06-15 17:42:00,
2013-06-15 11:47:00,65.0,41.0,26.94,NNE,22,0.0,6.0,42,0.00,,,0.00,Rainwise IP-100,2013-06-15 17:47:00,
2013-06-15 11:52:00,66.0,40.0,26.94,NNW,337,0.0,7.0,39,0.00,,,0.00,Rainwise IP-100,2013-06-15 17:52:00,
2013-06-15 11:57:00,67.0,41.0,26.92,SW,225,0.0,3.0,39,0.00,,,0.00,Rainwise IP-100,2013-06-15 17:57:00,
2013-06-15 12:02:00,68.0,42.0,26.92,NW,315,6.0,6.0,39,0.00,,,0.00,Rainwise IP-100,2013-06-15 18:02:00,
2013-06-15 12:07:00,68.0,42.0,26.92,NE,45,3.0,8.0,39,0.00,,,0.00,Rainwise IP-100,2013-06-15 18:07:00,
2013-06-15 12:12:00,68.0,41.0,26.92,NNW,337,1.0,7.0,37,0.00,,,0.00,Rainwise IP-100,2013-06-15 18:12:00,
2013-06-15 12:17:00,67.0,40.0,26.92,WNW,292,7.0,7.0,37,0.00,,,0.00,Rainwise IP-100,2013-06-15 18:17:00,
2013-06-15 12:22:00,67.0,40.0,26.92,North,360,0.0,8.0,37,0.00,,,0.00,Rainwise IP-100,2013-06-15 18:22:00,
2013-06-15 12:27:00,67.0,38.0,26.91,WSW,247,4.0,6.0,35,0.00,,,0.00,Rainwise IP-100,2013-06-15 18:27:00,
2013-06-15 12:32:00,68.0,39.0,26.91,NE,45,5.0,8.0,35,0.00,,,0.00,Rainwise IP-100,2013-06-15 18:32:00,
2013-06-15 12:37:00,68.0,38.0,26.91,NNW,337,6.0,7.0,34,0.00,,,0.00,Rainwise IP-100,2013-06-15 18:37:00,
2013-06-15 12:42:00,69.0,38.0,26.91,NNE,22,6.0,9.0,33,0.00,,,0.00,Rainwise IP-100,2013-06-15 18:42:00,
2013-06-15 12:47:00,69.0,36.0,26.90,NE,45,3.0,7.0,29,0.00,,,0.00,Rainwise IP-100,2013-06-15 18:47:00,
2013-06-15 12:52:00,69.0,35.0,26.90,ENE,67,1.0,7.0,28,0.00,,,0.00,Rainwise IP-100,2013-06-15 18:52:00,
2013-06-15 12:57:00,69.0,32.0,26.89,NNW,337,10.0,10.0,25,0.00,,,0.00,Rainwise IP-100,2013-06-15 18:57:00,
2013-06-15 13:02:00,70.0,35.0,26.89,West,270,5.0,10.0,27,0.00,,,0.00,Rainwise IP-100,2013-06-15 19:02:00,
2013-06-15 13:07:00,70.0,33.0,26.89,West,270,1.0,6.0,25,0.00,,,0.00,Rainwise IP-100,2013-06-15 19:07:00,
2013-06-15 13:12:00,70.0,33.0,26.89,North,360,6.0,7.0,25,0.00,,,0.00,Rainwise IP-100,2013-06-15 19:12:00,
2013-06-15 13:17:00,70.0,33.0,26.89,West,270,7.0,10.0,25,0.00,,,0.00,Rainwise IP-100,2013-06-15 19:17:00,
2013-06-15 13:22:00,70.0,33.0,26.89,NE,45,7.0,7.0,25,0.00,,,0.00,Rainwise IP-100,2013-06-15 19:22:00,
2013-06-15 13:27:00,70.0,31.0,26.88,NW,315,6.0,10.0,23,0.00,,,0.00,Rainwise IP-100,2013-06-15 19:27:00,
2013-06-15 13:32:00,70.0,29.0,26.88,SW,225,3.0,9.0,22,0.00,,,0.00,Rainwise IP-100,2013-06-15 19:32:00,
2013-06-15 13:37:00,70.0,31.0,26.87,WNW,292,3.0,7.0,23,0.00,,,0.00,Rainwise IP-100,2013-06-15 19:37:00,
2013-06-15 13:42:00,72.0,33.0,26.87,NNW,337,10.0,12.0,24,0.00,,,0.00,Rainwise IP-100,2013-06-15 19:42:00,
2013-06-15 13:47:00,71.0,33.0,26.87,NNW,337,3.0,10.0,25,0.00,,,0.00,Rainwise IP-100,2013-06-15 19:47:00,
2013-06-15 13:52:00,71.0,32.0,26.87,NW,315,0.0,6.0,24,0.00,,,0.00,Rainwise IP-100,2013-06-15 19:52:00,
2013-06-15 13:57:00,72.0,33.0,26.86,NNW,337,2.0,10.0,24,0.00,,,0.00,Rainwise IP-100,2013-06-15 19:57:00,
2013-06-15 14:02:00,72.0,32.0,26.86,North,360,4.0,9.0,23,0.00,,,0.00,Rainwise IP-100,2013-06-15 20:02:00,
2013-06-15 14:07:00,72.0,33.0,26.85,NE,45,1.0,8.0,24,0.00,,,0.00,Rainwise IP-100,2013-06-15 20:07:00,
2013-06-15 14:12:00,73.0,32.0,26.85,West,270,8.0,8.0,22,0.00,,,0.00,Rainwise IP-100,2013-06-15 20:12:00,
2013-06-15 14:17:00,71.0,32.0,26.85,West,270,1.0,9.0,24,0.00,,,0.00,Rainwise IP-100,2013-06-15 20:17:00,
2013-06-15 14:22:00,72.0,32.0,26.85,NNW,337,6.0,10.0,23,0.00,,,0.00,Rainwise IP-100,2013-06-15 20:22:00,
2013-06-15 14:27:00,73.0,32.0,26.85,ENE,67,6.0,8.0,22,0.00,,,0.00,Rainwise IP-100,2013-06-15 20:27:00,
2013-06-15 14:32:00,73.0,35.0,26.85,NNE,22,0.0,7.0,24,0.00,,,0.00,Rainwise IP-100,2013-06-15 20:32:00,
2013-06-15 14:37:00,73.0,35.0,26.85,West,270,5.0,6.0,24,0.00,,,0.00,Rainwise IP-100,2013-06-15 20:37:00,
2013-06-15 14:42:00,73.0,35.0,26.85,NW,315,7.0,7.0,24,0.00,,,0.00,Rainwise IP-100,2013-06-15 20:42:00,
2013-06-15 14:47:00,74.0,33.0,26.84,NE,45,7.0,8.0,22,0.00,,,0.00,Rainwise IP-100,2013-06-15 20:47:00,
2013-06-15 14:52:00,74.0,33.0,26.84,SSE,157,0.0,11.0,22,0.00,,,0.00,Rainwise IP-100,2013-06-15 20:52:00,
2013-06-15 14:57:00,74.0,33.0,26.84,NW,315,4.0,8.0,22,0.00,,,0.00,Rainwise IP-100,2013-06-15 20:57:00,
2013-06-15 15:02:00,74.0,33.0,26.84,NW,315,2.0,7.0,22,0.00,,,0.00,Rainwise IP-100,2013-06-15 21:02:00,
2013-06-15 15:07:00,75.0,33.0,26.83,ENE,67,5.0,5.0,22,0.00,,,0.00,Rainwise IP-100,2013-06-15 21:07:00,
2013-06-15 15:12:00,76.0,35.0,26.83,ENE,67,3.0,9.0,22,0.00,,,0.00,Rainwise IP-100,2013-06-15 21:12:00,
2013-06-15 15:17:00,76.0,32.0,26.83,ENE,67,4.0,7.0,20,0.00,,,0.00,Rainwise IP-100,2013-06-15 21:17:00,
2013-06-15 15:22:00,76.0,32.0,26.83,ENE,67,5.0,9.0,20,0.00,,,0.00,Rainwise IP-100,2013-06-15 21:22:00,
2013-06-15 15:27:00,74.0,31.0,26.82,West,270,7.0,7.0,20,0.00,,,0.00,Rainwise IP-100,2013-06-15 21:27:00,
2013-06-15 15:32:00,74.0,32.0,26.82,WSW,247,5.0,8.0,21,0.00,,,0.00,Rainwise IP-100,2013-06-15 21:32:00,
2013-06-15 15:37:00,75.0,32.0,26.82,North,360,0.0,9.0,20,0.00,,,0.00,Rainwise IP-100,2013-06-15 21:37:00,
2013-06-15 15:42:00,75.0,32.0,26.82,WNW,292,5.0,8.0,20,0.00,,,0.00,Rainwise IP-100,2013-06-15 21:42:00,
2013-06-15 15:47:00,74.0,31.0,26.82,North,360,4.0,10.0,20,0.00,,,0.00,Rainwise IP-100,2013-06-15 21:47:00,
2013-06-15 15:52:00,74.0,31.0,26.82,NNW,337,6.0,11.0,20,0.00,,,0.00,Rainwise IP-100,2013-06-15 21:52:00,
2013-06-15 15:57:00,76.0,32.0,26.82,NW,315,2.0,10.0,20,0.00,,,0.00,Rainwise IP-100,2013-06-15 21:57:00,
2013-06-15 16:02:00,76.0,32.0,26.82,ESE,112,4.0,7.0,20,0.00,,,0.00,Rainwise IP-100,2013-06-15 22:02:00,
2013-06-15 16:07:00,76.0,32.0,26.81,North,360,6.0,7.0,20,0.00,,,0.00,Rainwise IP-100,2013-06-15 22:07:00,
2013-06-15 16:12:00,76.0,33.0,26.81,NNW,337,2.0,9.0,21,0.00,,,0.00,Rainwise IP-100,2013-06-15 22:12:00,
2013-06-15 16:17:00,76.0,32.0,26.80,WSW,247,4.0,9.0,20,0.00,,,0.00,Rainwise IP-100,2013-06-15 22:17:00,
2013-06-15 16:22:00,76.0,32.0,26.80,NNE,22,4.0,8.0,20,0.00,,,0.00,Rainwise IP-100,2013-06-15 22:22:00,
2013-06-15 16:27:00,75.0,32.0,26.81,West,270,1.0,8.0,20,0.00,,,0.00,Rainwise IP-100,2013-06-15 22:27:00,
2013-06-15 16:32:00,76.0,32.0,26.81,NNE,22,0.0,7.0,20,0.00,,,0.00,Rainwise IP-100,2013-06-15 22:32:00,
2013-06-15 16:37:00,77.0,35.0,26.79,West,270,2.0,4.0,21,0.00,,,0.00,Rainwise IP-100,2013-06-15 22:37:00,
2013-06-15 16:42:00,77.0,35.0,26.79,West,270,6.0,9.0,21,0.00,,,0.00,Rainwise IP-100,2013-06-15 22:42:00,
2013-06-15 16:47:00,77.0,33.0,26.79,West,270,6.0,9.0,20,0.00,,,0.00,Rainwise IP-100,2013-06-15 22:47:00,
2013-06-15 16:52:00,77.0,32.0,26.79,North,360,2.0,9.0,19,0.00,,,0.00,Rainwise IP-100,2013-06-15 22:52:00,
2013-06-15 16:57:00,78.0,33.0,26.79,NNW,337,7.0,9.0,20,0.00,,,0.00,Rainwise IP-100,2013-06-15 22:57:00,
2013-06-15 17:02:00,78.0,33.0,26.79,North,360,3.0,7.0,20,0.00,,,0.00,Rainwise IP-100,2013-06-15 23:02:00,
2013-06-15 17:07:00,78.0,35.0,26.79,NNW,337,7.0,7.0,21,0.00,,,0.00,Rainwise IP-100,2013-06-15 23:07:00,
2013-06-15 17:12:00,78.0,32.0,26.79,SSE,157,3.0,9.0,19,0.00,,,0.00,Rainwise IP-100,2013-06-15 23:12:00,
2013-06-15 17:17:00,78.0,33.0,26.79,NE,45,5.0,9.0,20,0.00,,,0.00,Rainwise IP-100,2013-06-15 23:17:00,
2013-06-15 17:22:00,78.0,32.0,26.79,East,90,1.0,7.0,19,0.00,,,0.00,Rainwise IP-100,2013-06-15 23:22:00,
2013-06-15 17:27:00,78.0,33.0,26.78,North,360,7.0,7.0,20,0.00,,,0.00,Rainwise IP-100,2013-06-15 23:27:00,
2013-06-15 17:32:00,78.0,35.0,26.78,North,360,5.0,9.0,21,0.00,,,0.00,Rainwise IP-100,2013-06-15 23:32:00,
2013-06-15 17:37:00,77.0,33.0,26.78,North,360,6.0,10.0,20,0.00,,,0.00,Rainwise IP-100,2013-06-15 23:37:00,
2013-06-15 17:42:00,78.0,33.0,26.78,NW,315,3.0,8.0,20,0.00,,,0.00,Rainwise IP-100,2013-06-15 23:42:00,
2013-06-15 17:47:00,79.0,33.0,26.77,South,180,2.0,8.0,19,0.00,,,0.00,Rainwise IP-100,2013-06-15 23:47:00,
2013-06-15 17:52:00,78.0,33.0,26.77,ENE,67,4.0,8.0,20,0.00,,,0.00,Rainwise IP-100,2013-06-15 23:52:00,
2013-06-15 17:57:00,78.0,33.0,26.78,ESE,112,2.0,7.0,20,0.00,,,0.00,Rainwise IP-100,2013-06-15 23:57:00,
2013-06-15 18:02:00,79.0,35.0,26.78,West,270,6.0,6.0,20,0.00,,,0.00,Rainwise IP-100,2013-06-16 00:02:00,
2013-06-15 18:07:00,80.0,36.0,26.77,NW,315,0.0,7.0,20,0.00,,,0.00,Rainwise IP-100,2013-06-16 00:07:00,
2013-06-15 18:12:00,80.0,35.0,26.77,SSW,202,3.0,6.0,19,0.00,,,0.00,Rainwise IP-100,2013-06-16 00:12:00,
2013-06-15 18:17:00,80.0,36.0,26.77,West,270,0.0,6.0,20,0.00,,,0.00,Rainwise IP-100,2013-06-16 00:17:00,
2013-06-15 18:22:00,80.0,36.0,26.77,NW,315,4.0,7.0,20,0.00,,,0.00,Rainwise IP-100,2013-06-16 00:22:00,
2013-06-15 18:27:00,80.0,36.0,26.77,South,180,0.0,6.0,20,0.00,,,0.00,Rainwise IP-100,2013-06-16 00:27:00,
2013-06-15 18:32:00,79.0,35.0,26.77,WNW,292,3.0,7.0,20,0.00,,,0.00,Rainwise IP-100,2013-06-16 00:32:00,
2013-06-15 18:37:00,79.0,35.0,26.77,WNW,292,7.0,7.0,20,0.00,,,0.00,Rainwise IP-100,2013-06-16 00:37:00,
2013-06-15 18:42:00,79.0,33.0,26.77,WNW,292,7.0,9.0,19,0.00,,,0.00,Rainwise IP-100,2013-06-16 00:42:00,
2013-06-15 18:47:00,79.0,35.0,26.77,South,180,2.0,9.0,20,0.00,,,0.00,Rainwise IP-100,2013-06-16 00:47:00,
2013-06-15 18:52:00,79.0,35.0,26.77,WNW,292,3.0,7.0,20,0.00,,,0.00,Rainwise IP-100,2013-06-16 00:52:00,
2013-06-15 18:57:00,79.0,35.0,26.77,South,180,2.0,9.0,20,0.00,,,0.00,Rainwise IP-100,2013-06-16 00:57:00,
2013-06-15 19:02:00,79.0,35.0,26.77,NNW,337,1.0,9.0,20,0.00,,,0.00,Rainwise IP-100,2013-06-16 01:02:00,
2013-06-15 19:07:00,78.0,33.0,26.77,SW,225,1.0,8.0,20,0.00,,,0.00,Rainwise IP-100,2013-06-16 01:07:00,
2013-06-15 19:12:00,78.0,35.0,26.77,West,270,6.0,7.0,21,0.00,,,0.00,Rainwise IP-100,2013-06-16 01:12:00,
2013-06-15 19:17:00,78.0,33.0,26.78,WNW,292,0.0,7.0,20,0.00,,,0.00,Rainwise IP-100,2013-06-16 01:17:00,
2013-06-15 19:22:00,79.0,35.0,26.78,SW,225,2.0,4.0,20,0.00,,,0.00,Rainwise IP-100,2013-06-16 01:22:00,
2013-06-15 19:27:00,79.0,35.0,26.77,SSW,202,2.0,6.0,20,0.00,,,0.00,Rainwise IP-100,2013-06-16 01:27:00,
2013-06-15 19:32:00,79.0,35.0,26.77,West,270,5.0,5.0,20,0.00,,,0.00,Rainwise IP-100,2013-06-16 01:32:00,
2013-06-15 19:37:00,79.0,35.0,26.77,West,270,3.0,7.0,20,0.00,,,0.00,Rainwise IP-100,2013-06-16 01:37:00,
2013-06-15 19:42:00,77.0,35.0,26.77,SW,225,5.0,8.0,21,0.00,,,0.00,Rainwise IP-100,2013-06-16 01:42:00,
2013-06-15 19:47:00,77.0,35.0,26.80,West,270,4.0,9.0,21,0.00,,,0.00,Rainwise IP-100,2013-06-16 01:47:00,
2013-06-15 19:52:00,77.0,36.0,26.80,West,270,3.0,7.0,22,0.00,,,0.00,Rainwise IP-100,2013-06-16 01:52:00,
2013-06-15 19:57:00,76.0,35.0,26.78,West,270,6.0,9.0,22,0.00,,,0.00,Rainwise IP-100,2013-06-16 01:57:00,
2013-06-15 20:02:00,76.0,36.0,26.78,SSW,202,2.0,7.0,23,0.00,,,0.00,Rainwise IP-100,2013-06-16 02:02:00,
2013-06-15 20:07:00,77.0,36.0,26.78,WNW,292,1.0,6.0,22,0.00,,,0.00,Rainwise IP-100,2013-06-16 02:07:00,
2013-06-15 20:12:00,76.0,35.0,26.78,NNW,337,6.0,7.0,22,0.00,,,0.00,Rainwise IP-100,2013-06-16 02:12:00,
2013-06-15 20:17:00,77.0,35.0,26.79,NW,315,4.0,7.0,21,0.00,,,0.00,Rainwise IP-100,2013-06-16 02:17:00,
2013-06-15 20:22:00,76.0,35.0,26.79,NW,315,4.0,7.0,22,0.00,,,0.00,Rainwise IP-100,2013-06-16 02:22:00,
2013-06-15 20:27:00,76.0,35.0,26.79,NW,315,4.0,9.0,22,0.00,,,0.00,Rainwise IP-100,2013-06-16 02:27:00,
2013-06-15 20:32:00,76.0,36.0,26.79,NW,315,5.0,7.0,23,0.00,,,0.00,Rainwise IP-100,2013-06-16 02:32:00,
2013-06-15 20:37:00,75.0,36.0,26.80,NW,315,7.0,9.0,24,0.00,,,0.00,Rainwise IP-100,2013-06-16 02:37:00,
2013-06-15 20:42:00,74.0,35.0,26.80,NNW,337,2.0,8.0,24,0.00,,,0.00,Rainwise IP-100,2013-06-16 02:42:00,
2013-06-15 20:47:00,74.0,36.0,26.80,NNW,337,2.0,7.0,25,0.00,,,0.00,Rainwise IP-100,2013-06-16 02:47:00,
2013-06-15 20:52:00,73.0,36.0,26.80,NW,315,1.0,7.0,26,0.00,,,0.00,Rainwise IP-100,2013-06-16 02:52:00,
2013-06-15 20:57:00,72.0,36.0,26.81,WNW,292,1.0,6.0,27,0.00,,,0.00,Rainwise IP-100,2013-06-16 02:57:00,
2013-06-15 21:02:00,71.0,36.0,26.81,NW,315,3.0,6.0,27,0.00,,,0.00,Rainwise IP-100,2013-06-16 03:02:00,
2013-06-15 21:07:00,71.0,36.0,26.83,NW,315,3.0,6.0,28,0.00,,,0.00,Rainwise IP-100,2013-06-16 03:07:00,
2013-06-15 21:12:00,70.0,36.0,26.83,NW,315,1.0,5.0,29,0.00,,,0.00,Rainwise IP-100,2013-06-16 03:12:00,
2013-06-15 21:17:00,70.0,37.0,26.83,NW,315,0.0,3.0,30,0.00,,,0.00,Rainwise IP-100,2013-06-16 03:17:00,
2013-06-15 21:22:00,69.0,38.0,26.83,West,270,1.0,3.0,32,0.00,,,0.00,Rainwise IP-100,2013-06-16 03:22:00,
2013-06-15 21:27:00,68.0,38.0,26.84,WSW,247,1.0,4.0,34,0.00,,,0.00,Rainwise IP-100,2013-06-16 03:27:00,
2013-06-15 21:32:00,67.0,38.0,26.84,WSW,247,0.0,3.0,35,0.00,,,0.00,Rainwise IP-100,2013-06-16 03:32:00,
2013-06-15 21:37:00,66.0,38.0,26.85,WSW,247,1.0,0.0,36,0.00,,,0.00,Rainwise IP-100,2013-06-16 03:37:00,
2013-06-15 21:42:00,66.0,39.0,26.85,WSW,247,0.0,2.0,38,0.00,,,0.00,Rainwise IP-100,2013-06-16 03:42:00,
2013-06-15 21:47:00,65.0,40.0,26.87,SE,135,1.0,1.0,40,0.00,,,0.00,Rainwise IP-100,2013-06-16 03:47:00,
2013-06-15 21:52:00,64.0,39.0,26.87,SE,135,0.0,2.0,40,0.00,,,0.00,Rainwise IP-100,2013-06-16 03:52:00,
2013-06-15 21:57:00,64.0,40.0,26.88,West,270,0.0,4.0,41,0.00,,,0.00,Rainwise IP-100,2013-06-16 03:57:00,
2013-06-15 22:01:00,64.0,40.0,26.88,ENE,67,5.0,6.0,42,0.00,,,0.00,Rainwise IP-100,2013-06-16 04:01:00,
2013-06-15 22:06:00,64.0,40.0,26.88,East,90,0.0,6.0,42,0.00,,,0.00,Rainwise IP-100,2013-06-16 04:06:00,
2013-06-15 22:11:00,64.0,40.0,26.88,ESE,112,1.0,6.0,42,0.00,,,0.00,Rainwise IP-100,2013-06-16 04:11:00,
2013-06-15 22:16:00,63.0,39.0,26.89,SE,135,2.0,4.0,42,0.00,,,0.00,Rainwise IP-100,2013-06-16 04:16:00,
2013-06-15 22:21:00,63.0,40.0,26.89,ESE,112,2.0,3.0,43,0.00,,,0.00,Rainwise IP-100,2013-06-16 04:21:00,
2013-06-15 22:26:00,62.0,39.0,26.90,SE,135,2.0,4.0,43,0.00,,,0.00,Rainwise IP-100,2013-06-16 04:26:00,
2013-06-15 22:31:00,62.0,39.0,26.90,East,90,2.0,3.0,42,0.00,,,0.00,Rainwise IP-100,2013-06-16 04:31:00,
2013-06-15 22:36:00,62.0,39.0,26.90,SE,135,1.0,5.0,42,0.00,,,0.00,Rainwise IP-100,2013-06-16 04:36:00,
2013-06-15 22:41:00,61.0,39.0,26.90,SSE,157,2.0,4.0,44,0.00,,,0.00,Rainwise IP-100,2013-06-16 04:41:00,
2013-06-15 22:46:00,61.0,38.0,26.91,SSE,157,0.0,3.0,43,0.00,,,0.00,Rainwise IP-100,2013-06-16 04:46:00,
2013-06-15 22:51:00,61.0,39.0,26.91,SSE,157,2.0,6.0,44,0.00,,,0.00,Rainwise IP-100,2013-06-16 04:51:00,
2013-06-15 22:56:00,61.0,39.0,26.91,SSE,157,2.0,6.0,44,0.00,,,0.00,Rainwise IP-100,2013-06-16 04:56:00,
2013-06-15 23:01:00,60.0,39.0,26.91,SE,135,2.0,6.0,47,0.00,,,0.00,Rainwise IP-100,2013-06-16 05:01:00,
2013-06-15 23:06:00,61.0,39.0,26.91,ESE,112,4.0,6.0,45,0.00,,,0.00,Rainwise IP-100,2013-06-16 05:06:00,
2013-06-15 23:11:00,60.0,38.0,26.91,ESE,112,2.0,7.0,45,0.00,,,0.00,Rainwise IP-100,2013-06-16 05:11:00,
2013-06-15 23:16:00,60.0,38.0,26.91,SE,135,6.0,6.0,45,0.00,,,0.00,Rainwise IP-100,2013-06-16 05:16:00,
2013-06-15 23:21:00,60.0,39.0,26.91,ESE,112,0.0,6.0,46,0.00,,,0.00,Rainwise IP-100,2013-06-16 05:21:00,
2013-06-15 23:26:00,60.0,39.0,26.92,ESE,112,1.0,6.0,46,0.00,,,0.00,Rainwise IP-100,2013-06-16 05:26:00,
2013-06-15 23:31:00,59.0,38.0,26.92,SE,135,2.0,5.0,46,0.00,,,0.00,Rainwise IP-100,2013-06-16 05:31:00,
2013-06-15 23:36:00,59.0,38.0,26.93,ESE,112,1.0,4.0,46,0.00,,,0.00,Rainwise IP-100,2013-06-16 05:36:00,
2013-06-15 23:41:00,59.0,39.0,26.93,East,90,3.0,5.0,48,0.00,,,0.00,Rainwise IP-100,2013-06-16 05:41:00,
2013-06-15 23:46:00,59.0,39.0,26.93,ESE,112,1.0,7.0,47,0.00,,,0.00,Rainwise IP-100,2013-06-16 05:46:00,
2013-06-15 23:51:00,58.0,39.0,26.93,SE,135,2.0,6.0,49,0.00,,,0.00,Rainwise IP-100,2013-06-16 05:51:00,
2013-06-15 23:56:00,58.0,39.0,26.93,SE,135,3.0,5.0,49,0.00,,,0.00,Rainwise IP-100,2013-06-16 05:56:00,